Location: Newark
(47.5833°N, 8.1500°E)
Time: 00:00:03
(UTC+00:00)

Tiros 1 - Visible Passes

Search period start: 27 October 2020 00:00
Search period end: 06 November 2020 00:00
Orbit: 630 x 663 km, 48.4° (Epoch: 26 October)

Date Brightness Start Highest point End Pass type
(mag) Time Alt. Az. Time Alt. Az. Time Alt. Az.
27 Oct 7.7 03:46:43 43° S 03:47:27 47° SSE 03:51:54 10° E visible
27 Oct 7.1 05:24:52 10° W 05:29:31 85° N 05:34:10 10° E visible
28 Oct 9.7 02:34:10 16° E 02:34:10 16° E 02:35:25 10° E visible
28 Oct 7.1 04:11:51 42° SW 04:13:21 74° SSE 04:17:59 10° ENE visible
29 Oct 8.9 02:59:14 29° E 02:59:14 29° E 03:01:45 10° E visible
29 Oct 7.0 04:36:54 27° W 04:39:23 86° N 04:44:02 10° E visible
30 Oct 7.8 03:24:14 52° E 03:24:14 52° E 03:27:51 10° ENE visible
30 Oct 7.1 05:01:54 17° W 05:05:28 80° N 05:10:07 10° E visible
31 Oct 10.3 02:11:33 10° E 02:11:33 10° E 02:11:37 10° E visible
31 Oct 6.9 03:49:13 87° NW 03:49:15 87° NNW 03:53:54 10° E visible
31 Oct 7.1 05:26:55 10° W 05:31:33 88° N 05:36:12 10° E visible
01 Nov 9.7 02:36:30 18° E 02:36:30 18° E 02:37:43 10° ENE visible
01 Nov 7.0 04:14:10 50° WNW 04:15:20 80° N 04:19:59 10° E visible
02 Nov 8.9 03:01:27 29° E 03:01:27 29° E 03:03:46 10° E visible
02 Nov 7.0 04:39:07 30° W 04:41:26 86° N 04:46:04 10° E visible
03 Nov 7.9 03:26:24 49° ENE 03:26:24 49° ENE 03:29:51 10° E visible
03 Nov 7.1 05:04:04 18° W 05:07:27 73° SSW 05:12:04 10° ESE visible
04 Nov 7.0 03:51:23 84° NE 03:51:23 84° NE 03:55:56 10° E visible
04 Nov 7.7 05:29:03 11° W 05:33:21 47° SSW 05:37:46 10° SE visible
05 Nov 9.8 02:38:42 16° E 02:38:42 16° E 02:39:43 10° E visible
05 Nov 7.0 04:16:22 54° W 04:17:19 76° SSW 04:21:57 10° ESE visible
